Theta_e
317 317 317 318 319 319 319 320 320 321 322 322 322 322 322 322 322 323 323 323 323 324 324 324 325 325 325 326 326 326 323 307 305 302 302 304 320 335 338 336 337 332 324 303 303 303 300 296 301 298 299 299 299 299 299 300 296 292 285 282 284 279 284 285 288 288 291 291 292 291 290 292 290 290 294 295 294 289 289 292 292 292 293 295 294 297 299 301
317 317 317 317 318 319 319 319 320 321 321 322 322 322 322 322 322 323 323 323 323 324 324 325 325 325 326 325 326 325 317 305 305 302 302 317 338 340 337 338 336 332 317 303 299 297 300 299 299 296 297 297 299 301 299 300 296 287 285 283 283 281 286 290 288 289 291 291 290 291 288 291 292 292 293 293 292 289 293 294 293 294 293 293 293 293 292 300
317 317 317 317 318 319 319 319 320 321 321 321 322 322 322 322 322 323 323 323 323 324 324 325 325 325 325 326 324 324 312 303 301 299 304 330 339 339 337 337 333 327 305 302 297 298 301 298 298 297 294 297 295 297 297 298 299 291 289 287 283 286 287 289 289 292 290 292 293 292 290 290 293 293 293 293 292 289 292 295 292 293 294 293 294 292 293 294
316 317 316 317 317 318 319 319 320 320 321 321 322 322 322 322 322 323 323 323 323 324 324 324 324 324 324 325 325 318 304 300 297 299 302 333 339 339 339 335 329 312 302 299 298 298 297 297 295 299 296 291 292 295 297 297 295 294 290 287 288 287 292 293 290 292 291 291 292 290 289 292 293 290 293 291 293 294 293 293 294 294 295 295 293 292 293 293
316 316 316 317 317 318 319 319 320 320 321 321 322 322 322 322 323 323 323 323 324 324 324 324 324 325 324 324 323 309 302 293 298 300 303 334 338 338 337 331 321 301 303 299 301 297 296 298 296 293 295 294 291 293 296 296 294 293 292 289 290 289 291 292 290 291 291 289 291 289 292 295 292 292 290 292 292 294 295 295 293 294 293 292 292 292 295 295
316 316 317 316 317 318 319 319 320 321 321 322 322 322 322 323 323 323 323 323 323 324 324 324 324 324 324 323 309 304 301 291 301 302 330 336 336 338 335 328 321 301 301 299 298 298 301 296 297 296 291 293 292 291 292 295 297 293 289 291 290 289 294 294 292 290 292 292 292 292 294 291 291 292 291 292 294 296 295 295 294 293 292 293 295 295 295 295
316 316 315 316 316 317 318 319 320 320 322 322 322 322 323 323 323 322 323 323 323 323 323 324 324 324 323 320 303 301 299 300 300 305 329 334 333 333 331 327 319 304 302 302 299 300 294 295 295 291 289 289 290 290 290 292 295 294 291 290 293 291 294 293 296 293 291 292 292 292 290 292 290 292 290 291 295 295 293 291 293 296 297 296 295 295 294 294
317 316 316 316 315 316 317 318 320 321 322 322 322 322 323 323 323 322 323 323 323 323 323 323 323 324 321 303 304 295 297 298 303 306 324 324 314 317 314 304 303 304 303 301 297 295 295 295 296 292 293 292 289 292 293 292 294 294 292 291 293 291 292 291 289 288 289 289 291 289 291 293 291 291 291 295 293 292 292 294 295 295 295 295 295 294 294 294
319 316 317 317 316 316 317 318 320 321 322 322 322 322 323 323 323 323 323 323 323 323 323 323 323 323 320 301 298 298 297 302 305 311 315 310 307 304 305 307 301 301 297 296 299 297 299 294 294 293 292 290 291 292 291 292 289 292 292 290 289 290 289 290 290 290 290 291 290 291 292 291 291 291 291 293 291 292 294 295 295 294 294 294 294 294 293 293
320 318 318 319 317 316 317 318 320 321 322 322 322 323 323 323 323 323 323 323 323 322 322 323 323 320 307 301 298 295 301 306 316 320 312 307 305 306 305 303 301 300 302 299 296 297 299 294 297 296 292 293 291 292 290 290 290 290 290 290 291 292 289 290 291 292 291 291 289 292 292 291 290 291 289 290 291 293 295 294 293 293 293 293 293 293 293 293
321 320 319 319 318 317 318 318 320 321 322 322 322 323 323 323 323 323 323 323 323 322 322 323 322 315 303 301 298 296 305 311 312 316 309 305 305 305 306 304 301 301 299 298 299 296 297 295 296 296 298 293 292 292 291 292 290 290 291 290 289 288 288 289 288 290 290 292 288 291 289 290 288 290 289 291 290 292 293 293 292 292 291 292 292 292 292 293
321 320 319 318 318 318 318 319 320 321 322 322 322 323 323 323 323 322 322 322 322 322 322 322 319 307 301 299 297 301 307 309 313 310 309 308 306 306 305 303 303 301 301 299 299 301 298 297 298 297 292 295 291 292 291 289 293 291 290 291 288 289 291 290 291 290 290 291 288 289 290 289 289 288 291 291 290 293 293 292 291 291 291 290 291 292 292 292
321 318 318 318 317 317 318 319 320 321 322 322 322 322 322 322 322 322 322 322 322 322 322 320 313 307 303 298 301 304 304 305 312 309 308 306 305 304 303 302 302 301 304 301 301 303 299 298 299 296 296 292 290 292 291 291 291 291 287 287 290 288 289 291 289 288 289 291 286 291 285 285 286 290 290 291 290 292 292 291 291 290 290 290 290 291 291 292
320 319 318 318 317 317 317 319 320 321 322 322 322 322 322 321 321 322 323 321 323 321 321 319 309 303 301 297 302 306 306 308 311 313 308 307 307 306 305 303 301 300 303 302 300 299 300 298 299 298 297 296 295 297 293 287 288 291 288 287 285 284 284 288 289 288 290 290 287 292 286 285 288 290 291 289 288 290 290 291 290 289 289 289 289 290 290 291
320 320 320 318 317 317 317 318 320 321 322 322 322 322 321 320 321 322 323 322 322 322 321 316 306 301 296 301 304 305 319 309 311 309 309 307 305 305 306 302 302 299 300 300 301 300 299 300 301 298 296 294 295 295 288 283 283 284 287 283 279 284 284 286 291 288 290 291 287 291 284 288 291 291 289 290 288 291 290 289 289 288 288 289 289 289 290 290
321 320 320 319 318 317 317 318 320 321 322 322 321 321 320 321 321 323 322 322 321 319 312 308 305 301 298 297 304 315 307 306 305 305 304 307 305 306 303 300 302 299 300 300 299 297 297 297 295 293 295 294 290 282 281 286 283 281 285 283 283 282 282 287 291 286 290 289 289 290 287 283 290 287 289 290 288 290 289 288 287 288 288 289 289 289 289 289
320 320 319 319 319 318 319 319 320 321 322 322 321 321 321 322 322 322 322 319 314 312 310 304 303 303 298 303 308 303 301 302 305 304 303 304 305 302 301 301 300 300 299 300 299 300 297 296 293 293 289 290 287 287 286 281 282 283 281 283 282 283 283 284 288 289 287 290 288 288 286 284 290 290 289 291 289 290 288 288 288 288 288 288 288 288 288 288
320 320 319 319 319 318 319 319 320 321 322 321 320 320 319 321 322 320 315 312 309 305 301 305 303 302 300 302 300 301 302 302 305 303 302 302 302 300 299 298 296 295 296 297 297 298 296 295 291 290 288 286 289 285 283 282 285 282 282 282 284 282 282 285 284 288 289 288 289 287 285 287 289 291 290 290 290 289 288 288 287 287 287 288 288 288 287 287
321 320 320 320 320 319 320 320 321 322 322 321 321 320 319 317 308 307 307 308 303 301 298 297 299 295 293 300 300 301 304 306 303 305 304 305 302 299 299 297 297 297 293 292 293 294 290 290 290 286 287 285 287 289 288 289 287 288 286 285 282 283 283 282 287 287 289 288 287 286 288 290 290 291 289 290 289 288 287 287 287 287 287 287 287 287 287 287
321 321 320 320 320 319 319 320 321 322 321 319 316 312 305 302 299 300 302 304 300 302 301 300 303 298 300 300 300 303 304 304 304 301 304 303 303 300 297 296 296 294 292 291 291 292 291 287 285 285 289 289 288 290 291 291 289 287 285 284 284 283 284 285 285 289 289 288 286 289 288 286 288 288 288 289 289 288 287 287 287 286 287 287 286 286 286 286
320 321 321 320 320 320 320 320 321 321 321 318 314 305 301 299 296 295 296 299 303 302 302 301 303 302 304 301 300 301 301 301 300 300 304 306 302 300 297 296 291 292 289 290 291 292 292 286 285 289 291 290 290 289 288 287 286 286 285 283 284 283 285 287 287 287 289 288 284 283 285 286 287 286 287 288 288 286 286 286 286 286 286 286 286 286 286 287
320 320 320 320 320 319 320 321 321 321 320 316 309 302 300 299 303 302 301 298 300 302 302 303 301 302 304 302 301 301 302 299 301 301 304 304 301 298 295 292 288 291 289 289 291 289 287 286 288 291 291 289 288 288 286 287 287 285 284 283 282 284 284 286 287 286 286 287 285 284 285 288 287 286 287 286 286 286 287 287 286 286 285 285 285 285 285 285
320 320 320 319 319 320 320 321 320 321 315 309 303 300 299 304 304 301 302 294 296 300 300 299 300 300 302 303 304 303 300 298 299 300 301 302 297 296 293 292 290 288 289 290 291 285 286 285 290 292 290 289 288 287 285 286 285 284 283 282 283 285 284 282 285 286 289 286 285 284 285 287 285 286 286 286 286 285 286 286 285 286 285 285 285 285 285 284
319 319 319 319 319 319 320 320 320 317 313 309 303 302 305 302 301 302 301 295 294 297 300 300 301 300 299 301 303 304 299 298 298 298 303 301 297 294 294 291 289 288 290 289 291 290 290 289 289 290 289 289 288 287 286 284 285 284 284 283 284 284 284 285 286 285 285 286 285 286 284 284 285 286 284 285 286 286 286 285 285 285 285 285 285 285 285 284
319 319 319 318 319 320 319 320 314 311 308 303 302 304 303 301 301 302 300 294 290 292 300 300 299 299 301 302 302 301 298 297 298 300 302 301 294 294 292 292 291 288 290 288 288 288 287 292 290 288 287 286 286 286 286 287 282 281 283 287 287 286 286 285 284 286 283 281 282 284 279 276 278 280 283 284 284 284 284 284 284 284 284 284 284 284 284 284
318 318 318 318 319 319 320 311 308 308 306 304 306 305 301 300 300 300 295 286 287 289 296 294 303 299 304 298 298 298 300 296 297 298 302 299 301 296 293 292 292 289 288 287 288 286 289 289 291 291 288 285 285 286 285 287 283 283 286 286 288 287 285 285 284 284 279 279 284 282 280 275 279 281 282 282 282 283 283 283 284 284 284 283 283 283 283 283
319 318 318 318 318 320 313 306 307 308 305 306 306 304 301 303 303 305 297 287 285 293 293 297 298 297 301 297 298 297 290 289 298 298 298 301 299 299 293 289 290 290 289 288 287 288 289 287 287 286 287 285 284 285 285 288 285 283 284 284 285 285 285 284 283 285 281 280 282 282 281 278 279 281 282 282 282 282 282 283 283 284 283 283 283 283 283 282
319 318 318 319 319 319 314 313 311 307 306 308 304 302 302 302 302 301 293 283 285 296 291 293 297 302 299 295 296 295 293 294 292 296 296 297 298 295 295 288 291 290 289 289 285 288 288 286 286 286 286 285 286 286 286 288 287 284 286 284 283 285 284 282 284 282 281 282 279 279 282 280 277 278 282 282 281 281 281 282 283 283 283 283 283 283 282 282
319 318 318 318 319 319 318 315 313 310 310 304 303 303 304 303 300 296 290 284 294 287 302 294 303 298 294 297 295 290 292 290 290 293 294 297 297 295 292 289 289 287 287 290 289 285 288 290 288 287 286 285 286 285 286 289 287 286 283 283 282 282 281 280 279 282 278 278 274 281 283 277 280 278 281 280 280 282 281 282 283 283 283 283 282 282 283 282
319 319 318 318 318 316 315 316 314 313 307 306 305 305 306 303 300 292 286 281 297 289 293 295 294 290 292 292 292 291 291 289 290 292 293 293 294 293 292 291 288 288 289 284 286 288 289 289 290 288 287 288 285 285 284 287 287 284 284 284 283 280 279 278 278 276 277 274 276 282 283 283 278 279 281 282 282 282 282 282 282 283 283 283 282 282 282 282
319 319 319 318 313 314 315 310 315 309 309 307 307 307 306 300 292 287 283 290 294 290 291 291 289 292 291 289 288 289 288 287 291 291 291 293 292 290 290 290 289 283 282 284 285 285 287 287 288 287 288 286 286 286 284 284 283 285 286 282 283 284 277 276 269 274 272 271 273 278 281 281 277 276 279 282 281 283 284 283 283 283 283 283 283 282 282 281
318 319 319 317 316 318 312 310 313 310 309 310 310 306 303 290 292 285 286 298 290 290 287 286 288 288 288 288 285 287 288 288 288 290 288 286 287 289 287 285 287 279 279 281 283 282 285 287 285 288 288 289 284 284 284 283 285 284 283 284 278 272 273 271 268 273 271 274 278 277 280 279 280 282 282 282 282 282 285 286 285 285 284 283 283 282 281 280
318 318 318 317 316 314 315 309 312 311 310 311 309 305 295 287 282 289 287 291 287 292 290 290 288 288 286 287 287 286 287 286 288 288 286 286 286 287 285 287 284 288 282 281 282 281 283 282 285 287 288 288 289 286 282 283 283 283 284 279 273 271 266 263 266 264 268 273 276 278 279 278 279 281 280 281 281 282 282 284 286 286 285 284 283 282 281 280
318 317 315 316 316 316 311 311 312 312 310 310 306 299 291 284 285 295 292 288 290 292 291 288 288 287 287 286 285 286 286 287 288 287 287 285 286 284 287 286 285 287 281 280 281 279 274 278 283 286 286 287 290 290 287 281 283 284 282 285 282 273 264 268 265 272 275 275 273 274 274 271 275 280 279 280 281 281 281 283 284 284 283 283 281 280 280 279
318 317 316 314 315 314 310 311 312 313 312 308 301 294 285 285 287 286 287 289 289 291 290 291 289 288 289 288 288 288 288 287 286 285 285 284 283 281 283 286 286 285 283 283 282 277 281 279 284 285 286 288 288 287 285 283 284 281 281 283 279 280 279 279 274 269 268 270 270 272 275 276 280 279 280 279 280 281 281 283 284 282 282 281 280 280 280 280
315 313 315 310 310 312 311 311 312 314 310 304 296 288 286 289 286 288 289 295 294 290 290 290 288 287 286 286 287 289 292 289 287 285 284 284 282 283 283 284 287 290 286 284 283 281 281 279 283 286 286 287 288 287 289 287 281 283 284 281 283 285 285 282 279 277 275 272 276 270 277 281 280 280 278 279 280 280 280 281 282 281 281 280 280 280 280 280
310 309 307 307 308 311 312 312 312 312 309 302 294 287 292 291 290 289 296 294 293 293 291 288 288 287 287 286 287 288 291 291 288 286 284 284 285 284 284 285 289 291 293 292 286 286 282 279 283 284 287 287 284 286 285 285 288 286 282 285 286 288 287 284 278 277 273 274 277 272 276 279 278 278 278 278 279 279 279 280 281 281 280 280 281 281 280 280
306 307 307 305 308 311 312 312 311 309 305 299 292 293 292 293 294 293 293 293 294 293 289 289 288 291 286 287 287 287 290 289 288 288 285 287 286 288 285 288 291 292 293 293 289 286 286 280 283 284 285 287 284 287 287 286 287 284 283 285 285 280 281 282 278 274 275 274 275 276 276 276 278 281 278 279 279 280 279 279 280 280 280 281 281 281 280 280
306 306 301 305 307 311 311 312 310 305 299 294 292 292 295 291 293 292 295 295 295 293 290 291 289 291 288 286 286 286 288 286 286 285 286 286 284 288 289 289 289 287 290 292 289 286 288 282 282 285 285 286 285 284 279 282 287 286 286 284 284 282 279 277 282 278 278 276 277 273 274 278 279 279 280 282 282 281 280 279 280 282 282 282 282 281 280 280
304 301 299 303 306 310 311 311 305 302 297 289 290 291 294 292 295 295 295 297 294 293 291 290 292 289 290 289 288 288 287 287 286 285 287 287 288 292 289 292 289 289 288 293 290 290 286 286 277 282 284 284 282 283 281 283 280 283 284 279 282 279 282 281 280 280 279 270 271 273 274 279 279 279 281 282 283 282 281 281 282 283 283 283 283 282 281 280
302 300 298 304 306 310 310 306 299 295 293 291 293 292 292 293 295 295 296 297 296 299 295 291 291 290 289 288 290 289 287 286 286 286 287 287 286 285 289 290 290 290 289 291 290 288 285 284 280 281 282 281 283 284 285 284 286 284 285 282 284 280 279 278 278 280 273 277 274 273 276 282 280 280 280 280 280 283 283 283 283 283 283 283 283 282 281 281
300 294 296 304 306 308 305 296 296 296 292 289 289 293 291 299 293 294 295 296 297 295 298 293 292 291 289 291 289 288 287 286 286 287 287 287 288 289 290 288 289 290 290 286 287 287 288 284 283 281 283 284 285 283 282 283 284 283 285 284 285 284 284 278 276 277 271 275 272 273 271 280 281 279 279 280 280 282 284 283 282 283 283 283 282 282 282 282
298 294 300 302 306 305 301 295 295 294 292 293 296 295 295 293 292 293 294 295 293 296 293 293 293 292 292 292 290 288 290 288 287 287 286 286 287 288 288 288 288 291 289 286 289 288 291 284 280 283 284 281 283 282 281 281 284 285 284 280 282 282 283 283 283 278 278 273 273 270 273 279 282 280 277 276 276 278 281 283 283 282 282 283 282 282 282 282
296 295 297 303 306 304 298 289 289 291 292 293 294 294 295 295 293 292 292 294 294 292 292 292 292 295 292 292 290 289 291 285 289 289 288 287 288 287 285 288 290 291 291 289 288 289 283 284 283 280 279 279 279 282 283 283 283 277 279 280 282 281 282 280 277 276 277 278 281 276 274 280 283 281 281 280 279 279 282 282 283 283 283 284 283 283 282 282
294 296 296 299 303 301 294 295 293 291 292 291 291 290 292 293 294 296 295 294 295 294 292 291 293 291 291 291 290 291 289 290 287 288 289 286 287 284 284 286 288 289 288 288 293 289 285 283 281 278 276 274 274 274 270 273 281 280 277 276 281 283 283 279 279 275 276 281 280 278 279 284 282 282 281 280 278 281 282 283 284 286 285 284 284 283 282 282
291 288 293 293 298 296 295 295 294 292 290 291 290 292 293 291 292 292 296 295 297 295 294 291 289 291 289 290 288 289 288 288 288 286 287 285 285 286 282 282 284 286 286 293 291 290 284 283 284 284 281 279 281 281 279 280 279 278 279 281 283 282 284 284 281 279 279 280 280 282 283 281 281 282 281 281 280 282 282 282 283 283 283 283 283 283 283 283
291 286 288 285 294 293 291 294 292 293 289 294 287 292 290 291 292 290 295 290 294 295 290 291 289 288 287 289 288 288 289 288 288 287 286 284 283 284 283 283 283 284 290 290 289 282 279 281 283 283 284 285 285 285 282 283 282 282 281 281 282 283 281 281 281 280 281 279 277 284 278 277 281 284 282 281 282 282 283 283 282 281 282 283 283 283 285 283
287 288 290 292 289 286 288 289 292 292 293 294 290 293 290 290 291 289 291 293 291 294 291 289 291 292 291 290 288 285 287 287 287 286 288 286 287 285 288 285 284 288 289 286 285 287 281 282 284 282 282 285 285 284 281 281 282 283 283 283 282 283 280 279 280 282 280 281 279 283 282 280 283 285 283 283 283 283 284 284 284 284 282 282 283 283 283 283
288 285 286 289 285 283 288 291 293 292 291 292 289 291 289 289 288 290 288 287 290 289 294 287 287 290 291 290 290 287 287 284 284 287 286 283 285 284 282 282 284 283 285 283 284 282 283 282 285 283 282 283 283 282 281 281 281 282 282 283 283 283 282 282 282 282 280 280 284 283 282 282 285 285 281 283 283 282 282 282 281 282 283 281 280 281 283 283
285 286 284 286 285 284 283 288 291 291 288 292 287 289 290 289 287 286 286 288 285 287 291 289 290 288 289 289 290 288 289 289 288 284 286 288 282 284 280 284 281 281 282 282 284 283 285 280 286 279 281 282 283 280 279 279 279 280 282 283 283 283 279 280 281 281 281 281 282 282 279 280 283 281 281 280 280 280 281 280 282 282 281 281 282 282 281 281
287 286 288 285 284 283 283 285 287 289 287 289 288 290 290 289 288 289 287 290 290 286 288 289 291 287 287 289 289 289 292 289 288 288 287 287 286 285 285 284 286 278 281 280 279 280 283 277 278 277 278 279 279 277 278 278 277 278 280 282 282 280 277 279 279 280 280 279 280 278 277 278 280 278 281 279 279 280 281 282 282 281 280 280 281 281 280 280
286 286 286 285 282 287 283 283 285 287 284 289 290 290 289 289 290 290 287 290 289 289 289 290 290 289 285 286 287 289 291 288 289 287 286 288 286 284 285 284 287 285 280 283 280 280 281 277 277 275 277 277 280 275 276 275 275 274 276 280 282 282 282 280 278 278 281 282 277 276 278 280 279 278 279 277 278 279 280 280 280 280 278 278 279 279 279 280
Wind_Speed
4 4 4 5 5 6 6 7 7 8 8 9 9 10 10 10 11 11 12 12 13 13 14 15 14 14 14 14 13 13 13 1 2 2 5 5 2 5 6 1 7 7 4 3 3 2 2 4 1 9 3 3 3 1 2 2 1 2 2 4 0 2 2 5 4 7 1 0 3 4 1 1 6 5 3 2 1 1 2 2 4 4 5 1 3 2 3 3
5 4 4 4 5 6 6 7 7 8 8 9 9 9 9 9 10 11 11 12 13 13 14 14 15 14 14 14 13 13 8 1 4 3 5 3 7 6 2 5 7 6 5 3 5 2 3 0 1 4 3 1 2 0 1 0 2 3 2 2 4 5 4 5 3 5 0 4 4 2 1 2 4 1 3 4 6 4 8 1 1 4 5 6 4 7 7 6
4 4 4 4 5 6 6 6 7 7 8 8 9 9 9 9 10 10 11 12 13 14 14 15 15 14 14 13 13 11 5 3 3 2 1 6 7 3 4 6 6 3 1 2 2 5 1 3 2 1 3 1 7 1 3 1 1 1 3 1 4 7 3 5 3 2 6 1 6 6 1 1 3 0 1 2 7 5 6 9 2 1 5 5 6 7 8 9
3 4 4 4 5 6 6 6 7 7 7 8 8 9 9 9 10 10 11 12 13 14 14 15 14 14 14 13 12 7 1 2 1 1 1 7 5 3 5 7 6 4 5 7 5 4 4 7 6 3 1 4 3 1 0 1 1 1 1 3 2 2 0 1 5 6 5 1 2 1 2 5 3 4 0 1 7 6 6 3 5 5 6 7 6 6 9 10
3 3 4 4 5 6 6 6 6 6 7 7 8 8 9 9 10 11 11 12 13 14 14 14 14 13 13 12 11 1 3 3 1 1 3 8 4 4 6 8 5 4 4 7 7 5 8 4 2 4 2 0 2 1 0 1 1 3 5 2 3 1 1 5 4 4 1 1 1 2 6 6 2 0 1 2 4 12 3 1 1 4 4 3 5 6 7 10
2 3 4 4 5 5 6 6 6 6 6 7 7 8 8 9 9 11 11 12 13 14 14 14 13 14 13 12 3 1 2 1 1 1 8 6 4 6 6 7 7 7 6 4 2 2 3 4 3 1 1 1 0 1 0 0 1 2 3 2 3 3 2 1 0 4 1 1 1 5 3 3 2 7 4 5 9 4 4 0 2 5 4 4 6 5 8 10
2 3 3 4 5 5 6 6 6 6 6 7 8 8 9 9 10 11 12 12 13 14 14 13 12 13 14 4 1 6 1 4 2 3 8 5 6 7 7 5 5 3 3 3 2 1 1 2 2 1 2 1 1 1 1 0 1 2 4 1 3 4 5 3 4 2 2 3 5 2 2 3 5 11 0 4 1 2 3 6 7 7 8 7 10 9 8 7
2 2 3 3 4 5 6 6 6 6 7 7 8 8 9 9 10 11 12 12 13 13 12 12 12 11 11 2 1 2 2 4 2 2 4 5 6 6 7 5 3 2 1 1 4 2 3 3 3 3 1 2 2 3 0 1 1 3 3 1 2 1 4 4 3 5 4 6 6 2 4 7 4 5 5 11 5 3 6 6 8 7 10 11 11 10 8 9
4 1 3 1 4 5 6 6 6 6 7 8 8 9 10 10 11 12 12 12 13 13 11 11 11 10 2 2 3 3 4 3 3 3 3 3 2 5 4 0 1 4 3 2 1 4 3 3 1 5 3 0 2 1 0 0 6 4 5 0 2 3 4 4 5 5 4 4 2 2 9 7 8 3 3 7 3 4 4 10 8 8 12 10 9 8 9 9
5 2 1 3 2 5 5 5 6 7 7 8 9 10 10 11 12 12 12 12 12 11 10 10 9 8 4 2 2 1 4 0 2 2 1 6 4 6 9 3 5 5 3 1 4 4 2 3 4 4 5 2 4 1 1 4 3 3 1 2 2 6 5 4 1 6 1 3 3 3 9 5 1 2 5 3 2 3 10 9 7 10 10 8 7 7 8 10
5 3 2 4 2 3 5 5 6 7 8 8 9 10 11 12 12 12 12 12 11 10 9 8 7 5 1 1 1 6 4 2 0 0 2 4 6 4 1 2 2 3 4 1 1 3 2 5 3 4 1 3 4 0 1 2 3 2 0 2 4 5 4 7 5 12 1 4 3 7 6 1 2 1 3 0 2 1 11 8 8 9 7 6 6 8 6 7
4 2 4 5 4 5 5 4 6 7 8 8 10 11 12 12 13 12 12 11 10 8 7 4 4 1 1 2 4 7 1 2 1 1 2 1 3 0 3 4 1 4 4 2 2 2 4 4 6 2 2 2 0 0 1 3 1 0 1 5 6 7 8 2 5 3 2 4 3 5 2 4 0 6 2 1 2 7 10 8 6 7 6 6 5 6 8 8
6 4 5 4 4 5 6 7 6 8 8 9 10 11 12 12 13 12 11 9 6 6 3 4 3 2 1 3 8 6 1 1 2 4 4 4 4 3 3 2 2 2 1 2 1 3 4 7 4 3 1 3 2 1 1 3 0 1 3 1 8 6 8 5 1 2 1 2 3 2 5 7 6 6 6 2 6 7 10 7 6 5 6 6 6 6 7 8
6 5 6 5 5 5 6 8 8 8 8 9 11 12 13 13 13 12 9 6 6 3 5 5 3 1 2 4 5 1 1 3 4 3 1 0 3 2 3 4 4 3 1 3 2 2 4 0 4 2 1 1 0 0 3 4 3 3 2 1 2 5 5 2 1 1 3 0 1 1 4 7 11 2 1 3 1 4 5 5 5 5 6 6 5 6 7 8
6 5 6 5 5 4 6 9 9 8 9 11 12 13 14 14 13 10 7 4 1 3 2 2 2 2 1 6 4 6 4 2 2 1 0 2 2 1 1 3 5 5 2 4 2 1 3 4 4 1 1 0 1 1 3 3 4 2 3 5 2 4 6 10 6 4 4 1 1 3 0 9 10 1 2 4 2 8 8 5 5 5 5 5 5 6 6 6
7 6 5 5 6 5 6 8 8 8 9 12 12 13 13 13 11 6 2 1 2 4 1 0 2 2 1 5 1 2 2 1 1 1 0 2 1 0 1 4 1 4 2 2 2 2 3 5 4 1 0 1 3 4 3 5 4 4 3 4 5 1 5 9 1 1 3 1 2 3 5 3 6 1 5 8 6 7 9 5 5 5 6 5 6 5 5 7
8 7 6 5 6 5 6 7 7 8 9 9 12 11 10 9 5 3 5 6 3 2 0 0 1 1 1 1 1 1 3 1 1 1 2 2 1 5 4 3 1 1 3 3 5 2 5 3 2 2 4 2 2 5 1 3 6 5 1 5 3 3 2 3 8 1 1 1 1 1 1 5 7 8 2 10 5 8 8 6 5 5 5 5 5 6 6 7
8 7 5 5 6 6 6 6 7 8 8 8 11 10 6 5 5 5 3 4 1 2 1 1 1 2 7 2 2 2 0 2 2 2 2 1 4 4 3 2 0 4 3 2 4 2 2 1 3 5 1 1 2 3 4 8 7 4 1 1 6 2 4 7 1 1 2 2 1 1 3 8 11 10 6 8 6 9 7 5 5 4 4 5 5 5 5 6
8 7 6 6 6 6 6 8 6 8 7 9 10 7 3 3 3 2 2 0 1 1 1 1 3 4 3 1 3 2 1 1 2 1 1 2 2 3 4 3 4 5 1 2 1 2 2 3 4 3 5 2 7 9 10 10 5 8 7 5 3 4 3 3 8 3 1 3 3 3 8 8 8 10 6 9 6 8 6 4 5 4 4 4 5 4 5 5
9 8 8 7 7 7 7 6 6 7 8 6 4 2 1 1 1 0 1 1 3 6 2 3 5 1 5 2 1 0 1 1 2 3 0 1 3 2 3 2 3 5 4 4 0 1 1 4 5 7 10 8 5 10 12 8 0 0 1 3 6 5 5 6 4 7 0 3 6 8 6 5 8 4 5 5 3 6 5 5 4 3 4 4 4 4 4 5
9 8 7 6 7 7 7 4 5 5 6 2 2 1 1 2 1 4 2 6 6 3 5 4 8 5 5 1 0 2 1 1 2 0 1 1 1 5 1 2 2 1 1 1 4 1 3 4 7 9 8 8 8 6 4 4 2 4 5 4 7 2 10 3 3 1 0 2 4 3 3 7 6 3 5 4 3 3 2 4 4 4 3 3 3 3 3 2
10 9 8 8 8 6 5 4 5 5 1 1 1 1 0 1 0 1 1 5 2 6 6 7 2 5 1 3 2 3 4 1 0 0 0 1 1 4 2 3 3 7 0 2 1 1 0 7 7 12 7 2 1 1 3 6 7 4 4 2 4 8 4 5 6 3 1 3 7 4 4 10 5 1 2 3 2 1 1 1 3 4 4 3 3 3 3 4
10 8 8 8 8 6 3 4 3 4 1 1 1 1 1 1 1 1 1 1 6 2 3 3 4 8 7 2 1 2 2 6 7 2 5 3 2 3 4 3 3 1 1 2 7 1 6 4 14 10 1 3 2 1 2 0 1 4 2 2 9 3 1 6 3 1 1 2 3 0 3 7 1 2 3 3 2 2 3 4 4 2 3 3 3 3 3 4
11 9 9 8 6 5 3 5 4 0 2 2 1 2 0 1 2 1 1 2 4 5 5 4 3 2 6 3 3 6 6 3 3 4 3 5 7 3 3 4 3 2 6 5 7 10 10 3 1 2 5 5 7 2 3 4 7 0 4 5 8 4 5 8 6 3 2 1 1 2 5 6 7 6 1 2 3 4 3 4 4 3 3 2 2 5 4 4
11 10 9 7 6 3 5 4 2 3 3 2 2 2 2 2 2 3 1 4 1 4 1 1 3 2 2 1 1 4 1 0 4 1 1 4 5 3 3 1 3 5 5 4 1 3 8 9 2 2 1 2 4 5 7 6 3 2 6 12 8 6 8 7 3 4 6 4 3 1 5 3 2 4 2 2 2 2 1 3 2 2 3 3 4 4 3 4
12 11 9 8 7 6 2 1 3 4 3 2 1 3 3 2 2 2 2 2 7 3 3 4 2 1 2 1 1 3 4 3 0 1 1 2 1 3 2 0 2 4 4 3 5 4 6 2 3 6 4 3 4 6 2 7 5 0 6 7 11 9 5 3 2 2 2 1 1 2 2 6 5 4 1 2 2 1 1 1 0 1 2 3 3 3 3 3
13 11 9 9 10 7 3 4 1 4 2 2 2 3 3 2 0 0 1 2 6 4 5 2 2 1 0 0 1 2 2 3 1 2 1 2 3 1 4 4 2 1 2 2 3 5 1 2 3 2 3 4 4 8 3 8 6 4 2 2 3 4 5 5 3 6 5 1 3 1 2 4 5 3 2 3 3 1 1 2 1 1 1 2 2 2 3 3
15 14 12 11 11 10 2 1 3 3 2 0 3 3 3 3 3 1 2 4 5 3 2 2 1 1 1 0 5 1 1 1 1 1 0 2 1 2 1 4 7 7 3 3 7 2 3 0 2 2 1 4 7 3 5 7 6 3 0 3 3 5 4 3 4 4 1 1 6 3 1 2 4 2 1 2 3 4 7 4 4 2 1 1 1 1 2 3
15 14 13 12 11 12 5 2 2 3 1 3 3 3 4 3 2 3 4 5 1 2 2 3 3 1 1 0 2 1 0 1 2 1 2 1 3 2 1 4 4 3 2 4 8 2 2 1 3 6 5 5 4 2 5 9 5 2 5 7 6 6 6 4 4 4 1 1 5 5 4 4 7 1 0 2 3 7 6 6 4 4 4 2 1 1 2 2
16 15 15 13 8 6 5 3 4 0 5 4 4 4 3 2 2 2 1 8 1 2 2 1 2 2 2 5 1 2 1 1 2 0 3 3 2 4 2 2 4 3 2 2 1 6 0 4 4 4 5 5 4 1 2 1 1 5 2 5 4 7 3 2 6 2 2 4 5 10 9 7 8 4 7 9 8 3 7 3 3 3 4 3 3 3 3 2
17 16 16 15 9 5 4 4 7 6 5 5 3 4 4 3 4 3 12 4 3 1 2 1 2 3 5 5 4 1 2 0 0 2 1 1 1 3 1 2 4 4 2 2 4 4 1 1 0 2 4 3 3 3 3 1 2 3 1 2 1 1 6 2 4 4 1 6 5 2 2 1 9 4 6 5 1 6 13 14 15 12 10 8 5 4 3 2
17 17 17 14 5 7 10 4 6 7 7 6 5 5 5 5 2 10 7 3 1 2 4 2 1 2 3 1 4 3 4 1 0 2 4 3 5 6 5 7 5 3 3 4 5 2 3 7 2 2 3 8 2 5 2 3 1 3 4 3 2 4 5 2 3 2 5 5 0 2 1 2 11 5 1 3 5 4 7 10 17 15 12 9 6 5 4 3
17 16 17 12 4 5 4 1 8 9 9 8 4 3 4 5 8 9 1 3 2 3 3 5 4 3 3 2 1 0 1 3 0 0 3 1 3 4 2 1 3 1 1 0 2 2 6 2 1 3 1 4 6 5 2 1 0 4 4 4 4 0 1 2 5 1 6 5 3 1 0 4 2 6 2 3 2 2 4 3 8 14 15 12 8 5 4 3
19 16 11 9 8 3 3 6 6 9 10 7 5 4 1 4 8 4 9 2 1 1 4 2 3 3 5 5 2 5 1 2 5 2 1 1 1 2 3 2 3 1 3 1 2 3 2 3 3 5 3 1 6 7 8 4 7 7 3 6 7 7 4 4 3 5 6 4 2 4 1 6 1 3 1 5 4 5 4 4 4 4 4 5 5 4 4 4
19 15 8 5 7 6 7 6 9 9 9 9 6 7 7 11 1 5 4 3 2 1 2 1 4 3 1 0 1 2 2 1 1 4 1 4 4 2 5 5 4 4 1 3 3 3 3 5 3 2 1 2 7 0 4 5 4 2 2 5 5 6 6 6 3 3 1 3 3 2 5 4 4 1 1 2 1 3 2 5 9 7 6 6 5 7 6 5
12 6 8 4 5 4 7 7 9 10 8 8 6 5 13 6 3 2 3 3 2 4 3 3 3 2 1 1 1 2 2 1 2 3 1 2 2 3 2 3 7 11 6 6 3 2 2 2 1 4 1 1 0 2 0 2 4 2 3 4 6 1 4 1 2 2 1 2 9 3 6 6 2 1 4 3 3 2 2 5 8 8 7 6 7 7 7 6
7 7 6 3 3 5 9 8 8 9 10 9 6 8 6 2 2 3 2 3 2 8 4 6 4 6 3 4 3 1 2 3 2 3 3 2 3 6 2 4 4 6 8 5 2 3 3 4 1 3 2 1 0 0 2 3 3 7 2 5 1 1 3 3 4 2 1 4 7 3 5 6 1 9 1 2 0 1 2 4 7 7 7 9 10 9 9 8
7 5 2 2 3 7 8 9 10 7 7 9 12 13 3 4 1 1 2 2 2 1 3 4 2 4 2 3 2 4 1 4 3 3 2 3 2 4 2 1 2 6 10 1 3 2 3 2 3 1 1 3 2 1 2 2 2 2 1 1 1 3 1 1 4 2 4 6 6 4 2 5 7 8 2 4 6 8 6 5 7 10 11 13 11 10 8 6
5 6 4 2 2 6 8 9 9 9 7 8 8 11 0 1 0 1 3 2 0 3 3 1 3 1 3 2 2 1 3 4 3 4 3 2 1 3 2 3 1 1 1 4 2 1 1 2 4 1 2 0 1 4 3 3 1 2 0 1 0 2 1 3 4 2 1 8 6 5 3 11 5 5 10 8 12 9 9 9 13 17 18 15 14 12 11 9
8 4 3 1 1 4 8 10 6 5 5 7 7 4 1 0 2 3 3 1 2 1 1 2 0 2 1 1 3 2 1 2 4 4 3 1 2 1 1 3 3 0 2 2 2 1 0 2 4 1 2 0 1 2 6 8 4 1 1 1 0 0 2 3 1 4 4 3 4 6 10 8 6 4 6 7 6 13 17 17 14 14 15 15 13 12 10 9
1 3 1 1 2 4 9 7 5 6 4 1 1 2 0 1 0 1 3 4 2 3 2 2 3 3 3 3 2 1 1 1 2 3 2 1 3 1 1 1 1 1 1 3 2 1 2 1 5 1 1 4 7 4 5 5 6 7 9 8 9 5 3 4 9 3 1 3 5 4 15 9 3 2 2 2 3 8 13 14 15 15 15 14 11 9 9 10
5 4 3 1 2 4 9 9 4 3 4 6 7 4 2 3 1 1 1 2 3 2 1 3 1 2 2 2 3 2 3 2 2 1 2 4 1 2 1 3 1 3 3 3 4 2 3 1 1 5 7 8 8 0 1 1 1 2 6 6 6 3 3 3 8 6 2 5 2 2 4 12 1 2 3 4 3 6 9 6 6 7 9 8 6 5 6 9
0 1 1 0 1 3 6 6 3 6 6 3 5 1 2 1 2 1 1 1 1 1 1 1 3 3 3 2 1 1 3 2 5 5 3 3 3 4 3 3 1 5 4 3 3 0 4 1 1 6 3 2 1 1 3 1 2 1 2 2 3 4 7 9 9 4 6 1 2 2 6 6 1 1 2 3 4 4 4 7 8 5 5 7 7 8 9 7
3 2 1 0 2 2 5 7 6 8 4 3 3 2 2 2 3 1 2 2 2 1 3 2 1 3 1 2 2 3 2 1 2 4 3 3 3 2 2 4 3 4 4 4 4 2 1 2 1 4 5 4 2 1 1 2 2 1 3 4 4 1 1 1 2 2 6 8 12 5 15 10 1 1 2 3 2 1 5 5 7 7 7 9 10 9 8 8
3 1 1 2 2 2 5 2 3 4 6 6 5 6 3 0 4 6 5 4 1 3 2 1 1 2 1 1 1 1 1 5 1 2 3 1 3 0 5 2 4 3 1 3 6 5 3 3 3 3 7 9 11 9 4 3 6 2 1 1 1 9 7 1 7 3 9 8 10 6 13 4 1 2 3 2 2 1 3 5 6 10 11 12 11 10 8 7
0 1 0 3 2 3 2 2 2 2 5 5 4 4 4 4 1 1 6 4 6 3 1 4 1 3 2 3 2 4 5 2 6 2 4 3 1 1 1 4 2 0 3 3 5 3 2 1 5 9 9 12 13 6 1 3 2 2 4 5 8 5 9 9 5 7 13 5 10 13 13 0 4 1 2 1 1 5 6 6 9 8 6 5 6 7 8 9
1 2 2 1 1 1 3 1 1 2 3 5 4 4 9 10 3 0 7 3 4 5 1 2 2 2 3 3 5 4 4 3 5 2 6 3 2 2 1 1 3 0 2 3 0 3 2 4 7 10 14 17 14 12 2 4 7 5 6 7 8 9 7 11 12 15 3 4 14 10 4 3 6 6 3 4 6 6 6 5 3 3 7 10 10 8 7 6
2 3 3 1 2 3 3 6 5 2 1 4 4 3 5 10 8 6 2 2 1 3 4 1 5 10 8 10 5 3 5 7 6 7 4 1 1 1 1 1 2 1 3 0 1 3 4 8 8 6 10 13 10 8 3 3 4 6 7 9 12 11 9 14 15 11 6 15 17 4 3 3 4 7 3 7 8 9 10 11 12 7 4 5 7 8 8 8
2 1 1 2 2 3 2 1 6 7 8 5 1 3 5 8 9 7 5 1 2 2 8 7 7 13 11 6 8 6 6 4 8 4 3 3 6 3 2 2 1 2 3 0 0 1 1 7 9 5 9 9 9 6 3 6 5 5 8 11 13 13 15 15 12 8 11 9 8 7 4 9 10 6 6 7 7 4 2 1 2 5 7 4 4 5 8 10
3 3 2 2 3 1 2 1 4 6 9 9 5 9 8 9 9 2 0 5 3 4 4 10 12 4 6 7 8 10 13 13 7 4 4 6 2 3 2 6 2 1 1 4 3 3 4 5 3 2 4 9 10 3 3 5 6 10 12 15 17 14 3 3 6 8 1 6 10 8 7 12 5 3 4 2 1 2 1 3 6 8 5 4 5 8 8 8
1 2 1 5 2 2 2 1 3 7 6 6 10 13 6 7 10 6 3 4 10 6 6 14 11 3 4 8 10 15 13 5 4 9 6 7 7 5 6 4 5 3 2 1 0 1 3 5 3 2 6 9 4 5 7 7 5 8 13 19 19 10 8 8 9 6 9 11 8 6 7 9 3 3 2 0 0 3 7 8 6 4 4 5 8 8 6 6
4 1 2 3 1 3 5 2 1 3 11 10 10 11 7 11 9 6 6 5 5 4 7 9 8 8 3 5 13 15 4 2 4 2 3 5 1 1 3 3 8 7 6 7 1 5 5 4 3 2 7 10 6 3 4 2 1 5 16 21 14 13 13 4 1 3 9 5 6 7 11 4 1 3 2 4 5 7 7 5 5 5 5 6 7 6 6 7
Wind_Direction
64 50 43 40 37 31 28 26 24 25 24 20 16 14 11 6 1 358 357 352 347 346 342 340 341 339 338 337 335 335 338 47 1 15 351 240 318 276 269 235 142 139 120 81 57 83 3 16 21 341 22 54 318 39 298 45 39 50 64 112 289 203 140 201 181 186 180 265 290 347 53 48 319 331 304 344 337 24 304 299 284 289 252 243 258 261 286 304
61 45 38 34 31 30 26 22 20 20 19 15 14 12 9 6 0 352 354 349 345 342 340 339 338 339 337 334 336 337 340 34 325 317 246 328 330 313 153 129 137 140 102 56 110 106 112 298 8 39 48 52 316 307 3 295 75 89 131 91 237 181 239 158 203 205 110 284 260 276 286 195 249 3 317 2 300 359 328 289 256 262 309 336 334 330 347 354
48 46 31 28 27 23 22 19 15 14 16 10 10 10 7 1 357 352 348 347 342 340 340 339 339 337 336 334 332 341 350 345 358 9 321 355 332 14 132 131 131 106 89 154 199 134 151 194 175 79 8 101 8 279 27 307 47 205 116 256 253 209 249 220 186 232 202 17 313 317 359 99 263 208 304 286 286 332 293 295 352 297 284 299 289 330 337 359
32 40 22 22 22 17 13 14 11 5 11 6 5 5 4 357 353 350 348 344 342 340 338 340 338 338 335 329 335 326 56 35 8 258 329 335 352 54 115 118 95 88 79 58 136 100 99 93 63 83 42 68 310 27 41 298 55 248 94 182 232 200 123 276 185 237 243 180 270 281 298 318 286 218 41 236 338 286 260 254 233 269 287 293 322 349 1 16
26 22 21 7 14 10 5 5 2 0 3 357 2 358 357 355 350 348 347 342 339 339 341 339 340 338 334 330 332 355 34 52 258 245 309 335 0 83 113 110 82 61 94 142 88 55 68 81 83 41 79 268 353 5 305 341 135 110 207 194 160 144 262 247 202 201 193 220 209 318 340 279 302 158 193 169 254 279 318 142 202 227 260 318 358 350 25 29
22 9 16 2 358 357 356 352 355 354 355 351 355 354 350 351 350 346 344 342 339 339 340 343 341 338 336 329 1 44 68 1 258 335 331 349 46 78 103 105 97 89 90 53 97 51 82 7 66 29 14 53 276 157 298 191 12 237 315 257 207 193 245 273 193 201 100 335 318 310 259 322 23 289 246 230 225 261 83 193 78 61 44 87 72 39 30 27
1 12 358 358 344 341 348 342 344 348 347 348 349 346 347 348 345 345 342 341 339 338 341 342 343 340 333 349 58 75 103 267 15 284 7 15 55 72 87 65 61 61 66 89 35 89 75 95 88 183 94 39 272 178 262 16 14 129 249 344 313 170 214 255 293 39 299 162 256 203 353 302 307 313 64 267 17 272 12 45 80 77 63 52 55 35 41 35
9 351 339 340 347 331 337 334 338 337 341 340 344 342 343 344 344 342 341 339 338 338 341 342 344 341 357 36 36 2 38 254 262 357 334 57 49 64 87 54 71 77 80 128 136 118 118 123 169 141 81 165 221 150 254 90 59 172 270 254 259 147 242 281 276 302 278 256 262 314 289 260 216 248 9 283 59 21 47 59 58 60 55 47 49 38 30 29
148 33 252 181 327 336 326 321 328 333 333 338 340 339 341 340 340 338 337 335 338 335 338 341 343 345 16 77 103 11 276 239 226 303 320 78 60 36 11 24 40 110 126 72 0 166 135 253 109 180 257 153 177 141 257 113 306 199 223 146 295 293 297 281 303 258 249 266 193 328 270 269 251 307 255 305 112 70 76 55 42 50 51 42 41 35 33 31
207 193 183 218 348 313 313 306 311 331 335 336 336 337 334 336 333 333 332 331 333 333 333 340 344 335 33 74 43 332 259 304 345 329 324 119 85 67 46 111 106 112 110 9 88 104 167 214 167 190 122 91 143 169 131 137 234 159 210 217 268 278 341 321 273 287 325 260 184 244 281 293 326 47 276 14 61 131 68 57 40 57 55 42 40 33 29 33
236 270 209 189 189 305 311 296 314 327 333 332 331 331 331 328 330 328 327 327 328 328 332 335 354 353 59 79 149 233 225 76 284 17 102 91 77 73 193 152 141 85 100 78 205 173 171 145 155 112 74 228 132 281 164 211 142 63 189 309 291 310 267 252 302 273 306 296 181 200 253 307 291 116 215 268 338 59 88 55 47 54 54 42 37 40 26 36
196 173 293 297 300 299 306 297 311 324 325 327 326 325 325 325 323 323 321 322 319 328 335 1 25 86 71 72 189 222 341 189 110 96 45 85 69 330 220 182 149 149 142 164 246 230 169 158 133 134 210 127 355 153 258 235 64 149 47 323 296 338 334 258 245 318 145 264 149 164 305 300 68 230 89 38 93 80 81 68 54 52 49 43 36 37 35 28
191 255 279 279 293 291 292 286 305 315 324 321 321 324 322 322 318 315 317 317 319 329 6 67 36 65 88 331 234 231 305 208 132 104 64 66 105 66 75 77 109 123 160 139 217 214 178 140 142 131 169 111 168 218 172 75 311 129 35 77 325 352 321 299 42 25 140 251 130 181 290 276 261 253 330 9 127 90 63 55 46 47 41 38 36 37 36 29
208 183 228 258 282 280 277 281 301 311 318 319 322 324 322 318 316 311 310 304 327 4 55 50 73 57 91 237 267 240 220 127 113 90 60 300 78 350 38 28 61 51 18 98 75 84 123 91 114 120 111 105 269 269 47 337 19 273 261 63 267 358 272 280 84 281 349 199 132 108 219 283 278 75 345 7 97 91 90 64 53 44 39 37 32 34 38 34
197 204 206 253 251 267 268 275 291 307 312 322 326 325 323 319 315 308 300 301 301 26 104 76 31 65 55 266 246 296 159 127 122 224 285 122 118 44 20 27 39 29 78 97 132 81 114 105 100 85 235 304 75 24 324 16 356 8 15 299 326 174 279 300 281 185 202 342 72 115 355 247 267 264 15 344 56 94 87 73 53 44 44 39 31 34 33 28
193 198 219 234 241 257 275 277 283 298 308 325 328 325 324 320 315 310 298 198 112 88 56 24 359 97 44 293 234 104 68 159 265 282 298 132 128 172 169 115 35 20 47 17 73 104 54 87 77 187 140 10 63 84 35 14 336 353 187 272 269 202 270 334 332 247 231 106 359 149 231 331 298 172 47 9 52 84 99 74 55 53 46 39 37 34 29 24
204 203 199 221 228 263 264 276 291 299 317 327 326 325 326 326 358 81 80 63 62 67 43 246 101 66 251 238 108 330 243 244 358 29 14 17 120 150 103 54 23 49 35 58 22 59 350 67 287 34 34 125 130 100 33 353 296 278 43 228 213 222 258 251 300 26 15 149 182 10 204 242 259 290 87 22 43 91 84 82 66 58 55 45 44 42 34 33
214 212 218 222 243 257 256 276 289 312 320 335 327 324 323 355 49 76 52 50 65 77 61 155 151 346 278 37 233 238 66 295 32 180 53 316 113 88 98 102 18 78 52 44 357 120 318 152 39 191 13 26 136 99 147 234 209 226 220 249 285 259 222 255 334 267 33 23 62 311 244 265 277 283 26 13 24 81 80 82 78 67 57 49 49 43 39 39
212 211 206 211 238 260 275 274 302 318 333 335 329 339 18 60 40 89 70 10 92 340 357 218 136 155 208 218 293 359 214 193 131 70 179 96 25 95 69 81 88 119 105 87 246 113 351 75 35 50 225 172 203 178 195 223 196 228 221 231 189 248 231 203 238 283 59 322 328 268 254 266 270 279 358 13 25 79 91 82 73 66 61 59 54 45 40 39
207 210 221 225 221 241 261 282 308 330 343 336 3 0 15 3 6 325 345 41 226 196 164 201 210 333 321 274 234 262 312 114 124 339 281 299 124 70 35 78 34 65 109 186 307 149 117 146 180 200 222 214 203 200 210 230 207 153 164 217 241 240 281 273 263 259 67 332 253 250 259 254 265 295 340 349 26 63 73 79 82 75 76 68 63 57 53 47
201 203 202 223 230 243 257 295 309 346 333 348 327 71 228 191 106 286 286 241 232 259 241 229 202 201 240 115 315 132 135 315 73 21 206 133 118 117 233 67 34 164 315 187 142 309 74 187 235 230 228 205 216 231 282 311 282 238 254 256 274 180 260 247 271 325 318 176 294 265 294 269 253 334 344 349 54 53 88 108 107 101 88 77 77 68 49 49
199 198 197 213 231 234 250 280 321 307 47 130 139 186 218 206 189 199 94 306 322 242 228 247 59 279 316 189 209 155 86 25 296 129 315 137 46 155 286 112 149 200 176 111 30 69 168 212 239 240 242 45 57 157 197 210 246 248 227 258 299 258 268 281 267 343 288 157 257 309 287 274 291 340 9 23 65 53 30 103 130 128 116 103 81 76 58 50
196 194 203 208 229 234 258 285 286 303 79 100 223 130 208 222 283 276 95 129 261 266 201 220 232 237 265 279 259 120 216 213 240 199 200 128 68 206 144 116 165 134 74 151 199 167 276 284 240 246 95 216 287 139 129 194 204 219 226 237 243 239 341 302 287 15 32 156 270 61 272 279 302 83 52 15 54 78 58 69 62 57 99 91 69 55 64 49
204 194 204 212 223 229 267 285 304 16 200 183 164 196 195 118 127 112 66 238 279 303 208 224 201 194 225 183 227 156 184 253 133 263 248 135 150 180 105 159 147 144 209 189 201 198 219 226 247 127 183 183 235 218 172 215 254 179 190 221 244 238 224 195 255 331 285 339 62 263 290 293 246 226 128 44 51 78 46 64 66 52 55 94 97 62 49 56
203 192 191 213 224 216 245 301 279 215 118 94 245 237 196 186 177 179 73 322 346 282 233 290 157 238 204 70 21 156 250 38 224 229 216 142 141 92 221 193 115 222 197 197 194 270 283 267 114 69 103 167 191 254 228 188 260 309 221 213 224 214 238 242 343 347 7 336 348 34 327 307 308 286 186 147 47 59 8 82 65 64 48 57 63 58 45 51
200 190 192 209 213 217 208 351 236 152 149 192 206 164 151 119 144 89 99 65 278 259 4 244 141 244 109 72 19 171 100 235 255 231 87 228 168 146 82 143 142 234 194 127 200 201 220 317 154 221 192 163 187 220 248 143 196 189 270 202 217 224 230 269 267 83 295 220 324 37 205 273 321 310 125 123 96 80 26 57 109 48 53 47 49 45 38 37
198 195 192 204 205 180 164 231 190 131 123 270 186 141 167 110 92 82 22 323 298 193 160 265 80 232 217 207 139 130 153 262 311 41 68 336 168 351 138 212 39 26 153 157 37 267 131 348 70 63 141 166 194 245 226 152 140 232 255 152 174 184 201 223 167 182 232 249 303 28 129 245 287 280 40 127 125 186 204 205 225 94 52 55 52 34 36 34
194 190 193 204 206 189 265 126 132 173 202 168 121 128 124 136 106 53 80 307 270 61 115 236 196 344 85 339 74 136 198 111 72 264 145 291 95 358 119 201 170 180 182 109 216 263 131 95 151 134 143 173 219 206 189 163 151 216 233 136 140 180 186 135 149 179 218 20 284 314 243 312 260 264 342 143 159 227 223 201 209 197 228 159 74 58 60 54
196 190 190 201 207 210 230 245 160 215 201 128 124 112 102 85 73 95 124 238 204 85 29 80 270 46 15 71 63 78 105 351 138 243 315 38 29 144 185 221 155 135 28 165 220 276 285 192 195 152 142 216 224 251 175 160 200 252 129 91 81 74 69 118 107 126 322 76 261 229 191 224 272 287 192 303 279 243 199 191 195 216 210 203 158 127 98 72
196 192 188 189 185 211 226 196 226 202 120 125 125 114 85 72 70 109 158 240 77 234 137 189 128 213 81 133 238 16 143 344 99 342 35 147 328 39 22 140 120 107 190 5 303 218 264 301 153 127 190 206 139 46 162 225 153 130 98 64 18 40 27 19 67 86 57 258 235 210 204 176 287 229 210 171 214 176 119 142 199 218 228 222 208 178 158 128
194 189 187 177 195 183 124 209 198 139 136 118 122 93 83 33 149 142 225 211 50 156 40 97 180 44 124 129 176 327 96 357 38 88 81 15 20 46 109 47 55 55 47 351 284 321 346 39 156 250 97 94 99 82 39 102 137 125 107 130 54 326 8 35 343 38 128 265 260 321 242 170 208 293 271 233 192 174 159 178 184 193 197 194 185 186 178 156
192 189 186 188 194 153 182 216 146 144 142 145 126 112 125 180 359 199 227 42 224 200 145 196 10 131 148 3 94 163 159 44 289 118 148 173 151 160 200 152 167 96 323 211 253 13 263 225 230 324 204 135 101 80 3 32 46 82 87 66 96 265 26 302 20 281 207 224 196 348 340 348 246 230 222 233 206 212 205 180 181 183 183 182 181 179 173 158
190 189 187 195 164 198 207 132 147 149 138 145 127 140 158 169 214 206 11 190 246 126 235 98 175 135 159 95 254 191 31 152 257 185 102 3 133 247 271 171 197 155 194 179 203 18 277 301 119 231 62 216 134 144 195 50 258 115 150 142 88 57 46 269 273 242 307 294 279 339 246 249 266 285 232 224 248 249 272 267 191 176 176 175 172 164 159 168
188 185 187 187 201 183 121 135 142 138 136 143 144 163 95 188 237 91 180 224 179 6 86 113 85 77 128 161 242 157 146 254 144 184 102 130 95 218 262 272 142 78 80 168 165 195 22 343 279 148 221 151 175 188 183 162 159 206 127 146 186 142 156 246 201 230 240 227 277 264 78 231 119 229 251 238 277 296 264 230 156 132 131 137 134 138 153 168
185 184 167 151 199 197 153 153 149 161 151 159 167 172 187 223 70 161 202 189 272 58 79 346 114 109 178 18 294 248 162 116 122 109 170 126 222 187 189 205 237 121 170 110 253 77 205 214 261 300 246 128 175 311 112 100 58 172 164 81 89 229 144 232 200 165 257 329 336 204 206 192 191 106 270 311 300 15 43 130 130 135 131 134 143 167 182 188
168 182 162 194 187 180 151 156 160 165 165 179 174 183 213 193 187 166 203 148 133 138 149 60 87 102 176 295 302 177 299 137 212 106 272 199 210 189 221 205 175 191 151 170 191 180 53 300 285 320 98 121 130 131 268 132 215 221 103 204 210 157 142 296 41 94 97 59 252 140 298 281 313 67 4 339 57 13 76 129 142 149 152 156 177 188 195 193
165 118 198 157 199 157 155 155 163 173 187 192 194 220 228 316 196 170 292 156 205 137 138 131 242 137 195 218 180 187 202 86 201 142 241 174 281 197 224 258 187 183 202 144 282 183 144 239 283 106 210 357 234 85 92 34 145 98 178 241 144 180 109 137 233 342 63 224 271 80 235 279 40 279 38 19 343 212 179 162 161 151 160 178 195 197 196 193
141 167 132 183 180 149 150 155 156 186 197 206 203 213 59 208 39 357 316 63 19 33 113 161 269 125 241 141 245 167 245 149 194 126 225 194 258 151 151 172 185 184 210 9 163 285 107 319 299 357 85 317 358 109 30 356 40 147 187 234 121 244 250 344 82 283 262 260 275 285 263 265 203 250 99 250 207 208 188 187 163 179 189 195 198 201 200 191
133 140 204 149 11 152 148 149 166 177 194 212 216 221 139 217 265 222 247 206 135 120 135 250 133 341 127 153 191 7 172 175 170 181 129 221 141 197 180 176 174 266 333 149 148 185 63 199 292 329 142 268 29 81 220 239 338 56 87 35 92 105 192 107 195 195 138 272 291 285 342 270 188 221 186 208 205 186 171 183 201 195 193 190 194 195 191 184
144 149 226 38 271 127 145 143 146 182 217 217 205 215 112 12 246 271 310 306 1 76 210 116 24 122 124 150 144 160 321 129 152 222 140 276 181 286 209 13 147 17 355 179 132 158 202 125 228 296 306 33 185 164 206 171 169 111 138 293 1 67 234 102 330 159 205 205 199 279 283 271 260 199 181 215 200 185 179 193 197 199 200 202 196 188 180 180
336 112 182 53 16 135 139 143 161 193 191 20 190 213 49 195 304 329 345 18 105 11 134 145 161 158 177 122 245 170 90 107 134 162 184 287 154 317 259 149 170 100 53 55 125 223 83 156 207 272 7 221 234 233 207 180 187 172 175 204 186 135 232 246 255 74 107 174 243 226 259 274 263 171 208 201 221 182 208 194 193 200 199 196 194 186 179 186
143 171 173 74 326 163 154 165 197 149 126 188 210 172 204 137 94 280 27 341 72 117 13 104 23 116 129 159 155 156 127 142 189 99 261 177 266 146 309 42 29 167 122 162 187 245 156 142 110 248 210 210 226 231 243 170 110 175 162 234 182 187 149 181 256 242 35 246 107 195 292 263 220 237 235 237 228 216 205 194 213 207 204 199 193 181 193 195
321 72 3 54 272 162 158 202 152 160 180 194 94 55 132 50 143 301 128 352 22 149 47 141 189 136 258 148 202 131 167 211 162 203 184 179 245 200 236 158 170 37 71 335 16 347 69 100 224 273 298 321 352 87 74 83 102 32 282 72 91 189 185 199 229 193 226 161 250 284 235 260 298 163 251 248 240 244 215 190 196 185 183 191 189 194 198 193
84 117 355 201 99 74 197 180 191 191 141 77 149 178 94 158 146 203 172 254 173 151 167 173 12 229 205 128 144 175 186 116 241 165 272 205 241 105 339 178 178 161 191 232 145 262 66 279 155 314 306 321 346 352 35 3 43 180 211 225 216 190 169 202 81 77 244 200 237 161 253 259 258 72 352 41 67 160 182 195 175 177 184 193 195 197 196 193
114 82 56 324 31 45 199 353 118 140 183 168 150 180 163 159 207 197 171 205 172 164 126 245 184 142 182 113 129 97 145 185 320 250 199 173 226 356 322 150 274 194 89 214 140 164 134 180 135 210 246 266 270 254 259 263 226 221 261 326 258 201 198 123 250 189 240 223 218 223 255 246 285 1 18 39 94 141 213 189 201 197 191 190 193 193 186 181
92 168 86 1 31 12 0 119 36 121 157 161 188 203 177 215 287 273 176 230 191 187 132 154 43 90 117 121 161 190 208 198 171 233 151 240 279 328 249 336 9 288 290 151 126 124 180 196 187 224 233 250 252 259 227 99 45 185 256 199 225 214 220 222 258 231 234 235 228 235 248 135 280 237 294 245 223 187 206 204 203 207 207 196 182 181 189 193
55 109 149 260 51 327 259 86 160 143 183 159 191 156 202 210 182 285 191 204 216 174 66 153 152 120 246 143 189 214 194 202 218 231 219 161 255 226 290 183 7 199 187 83 242 79 83 232 227 226 233 244 252 262 231 155 250 244 247 254 238 223 203 207 213 239 185 284 257 240 130 172 250 270 204 232 230 238 230 220 216 201 205 196 192 185 185 184
130 263 95 232 134 212 194 255 191 181 277 177 215 165 202 195 195 211 99 235 29 160 162 271 187 209 187 178 153 193 187 214 174 215 194 176 262 309 310 93 172 229 154 95 357 160 157 239 240 213 239 247 245 253 188 198 207 248 250 251 245 232 219 218 227 234 167 227 255 251 135 187 245 250 203 209 200 207 205 209 208 202 189 181 179 185 185 190
92 30 174 333 155 293 195 22 163 190 220 188 285 208 221 201 210 199 157 161 154 242 198 229 211 208 207 173 168 215 187 218 229 213 169 203 195 184 243 327 285 20 132 56 49 177 147 242 249 216 245 245 251 237 201 225 245 246 242 245 244 239 233 226 236 225 209 236 248 238 202 227 230 233 168 221 225 207 226 198 134 173 211 177 179 189 194 197
222 147 258 23 81 88 313 40 155 188 220 202 221 217 224 225 227 127 328 150 182 232 202 224 233 177 188 186 188 215 219 217 215 202 213 180 274 165 235 203 158 359 138 179 162 285 158 269 127 107 242 260 261 205 173 204 222 247 254 253 248 252 312 184 207 230 247 274 250 243 236 255 248 157 213 250 209 177 273 244 207 209 199 172 197 214 216 207
83 65 138 116 178 232 80 106 160 188 216 211 220 234 231 225 239 184 223 205 192 195 181 213 223 162 201 195 206 225 231 213 194 225 183 164 216 204 161 271 148 144 165 120 179 275 166 261 54 116 250 260 237 173 209 215 222 235 254 254 251 240 241 211 218 187 204 223 231 244 251 257 281 126 183 347 111 188 214 226 227 223 207 193 208 222 214 212
73 358 71 93 206 192 168 162 116 129 224 214 213 224 215 212 224 151 242 229 219 190 176 198 208 182 218 200 219 226 231 157 219 187 175 194 170 151 186 181 163 164 181 192 142 151 184 151 183 176 242 251 267 153 185 130 253 275 241 240 242 233 229 239 330 231 223 202 227 238 245 243 181 151 112 250 228 235 242 236 249 253 212 199 223 227 219 218